Location: Unspecified
(41.1637°N, 24.2901°E)
Time: 21:36:30
(UTC+02:00)

ISS - Pass Details

Date: 20 September 2019
Orbit: 411 x 421 km, 51.6° (Epoch: 19 September)

Event Time Altitude Azimuth Distance (km) Brightness Sun altitude
Rises 19:46:47 0° 234° (SW) 2,333 0.6 -16.1°
Reaches altitude 10° 19:48:52 10° 235° (SW) 1,474 -0.5 -16.5°
Maximum altitude 19:52:10 84° 322° (NW) 417 -3.8 -17.1°
Enters shadow 19:53:26 35° 50° (NE) 682 -3.0 -17.3°
